Time,TemperatureF,DewpointF,PressureIn,WindDirection,WindDirectionDegrees,WindSpeedMPH,WindSpeedGustMPH,Humidity,HourlyPrecipIn,Conditions,Clouds,dailyrainin,SolarRadiationWatts/m^2,SoftwareType,DateUTC
2013-02-01 00:00:00,33.8,22.2,29.88,NNE,24,0.0,0.0,62,0.00,,,0.00,0,WeatherTracker,2013-02-01 05:00:00,
2013-02-01 00:01:00,33.8,22.2,29.88,SE,132,3.0,0.0,62,0.00,,,0.00,0,WeatherTracker,2013-02-01 05:01:00,
2013-02-01 00:02:00,33.7,22.5,29.88,SE,146,0.0,0.0,63,0.00,,,0.00,0,WeatherTracker,2013-02-01 05:02:00,
2013-02-01 00:08:00,33.3,22.5,29.88,SSE,167,1.0,0.0,64,0.00,,,0.00,0,WeatherTracker,2013-02-01 05:08:00,
2013-02-01 00:13:00,33.2,22.4,29.88,South,174,3.0,0.0,64,0.00,,,0.00,0,WeatherTracker,2013-02-01 05:13:00,
2013-02-01 00:18:00,33.3,22.5,29.87,ESE,110,3.0,0.0,64,0.00,,,0.00,0,WeatherTracker,2013-02-01 05:18:00,
2013-02-01 00:23:00,33.4,22.2,29.87,East,90,2.0,0.0,63,0.00,,,0.00,0,WeatherTracker,2013-02-01 05:23:00,
2013-02-01 00:28:00,33.5,22.3,29.87,ESE,113,3.0,0.0,63,0.00,,,0.00,0,WeatherTracker,2013-02-01 05:28:00,
2013-02-01 00:33:00,33.5,22.3,29.87,ESE,113,0.0,0.0,63,0.00,,,0.00,0,WeatherTracker,2013-02-01 05:33:00,
2013-02-01 00:38:00,33.5,22.6,29.87,East,92,3.0,0.0,64,0.00,,,0.00,0,WeatherTracker,2013-02-01 05:38:00,
2013-02-01 00:43:00,33.4,22.9,29.87,SE,128,2.0,0.0,65,0.00,,,0.00,0,WeatherTracker,2013-02-01 05:43:00,
2013-02-01 00:48:00,33.3,22.1,29.87,SE,133,3.0,0.0,63,0.00,,,0.00,0,WeatherTracker,2013-02-01 05:48:00,
2013-02-01 00:53:00,33.5,22.6,29.87,SE,146,3.0,0.0,64,0.00,,,0.00,0,WeatherTracker,2013-02-01 05:53:00,
2013-02-01 00:58:00,33.4,23.3,29.87,ESE,109,3.0,0.0,66,0.00,,,0.00,0,WeatherTracker,2013-02-01 05:58:00,
2013-02-01 01:03:00,33.2,22.4,29.87,SE,126,0.0,0.0,64,0.00,,,0.00,0,WeatherTracker,2013-02-01 06:03:00,
2013-02-01 01:08:00,33.3,22.8,29.87,SSE,153,2.0,0.0,65,0.00,,,0.00,0,WeatherTracker,2013-02-01 06:08:00,
2013-02-01 01:13:00,33.4,22.9,29.87,SSW,211,0.0,0.0,65,0.00,,,0.00,0,WeatherTracker,2013-02-01 06:13:00,
2013-02-01 01:18:00,33.8,23.3,29.87,SSW,205,0.0,0.0,65,0.00,,,0.00,0,WeatherTracker,2013-02-01 06:18:00,
2013-02-01 01:23:00,34.0,23.1,29.87,SSW,200,3.0,0.0,64,0.00,,,0.00,0,WeatherTracker,2013-02-01 06:23:00,
2013-02-01 01:28:00,34.3,23.0,29.86,ESE,122,1.0,0.0,63,0.00,,,0.00,0,WeatherTracker,2013-02-01 06:28:00,
2013-02-01 01:33:00,34.4,23.5,29.86,SE,136,3.0,0.0,64,0.00,,,0.00,0,WeatherTracker,2013-02-01 06:33:00,
2013-02-01 01:38:00,34.4,23.5,29.85,SE,134,0.0,0.0,64,0.00,,,0.00,0,WeatherTracker,2013-02-01 06:38:00,
2013-02-01 01:43:00,34.4,23.5,29.86,South,169,0.0,0.0,64,0.00,,,0.00,0,WeatherTracker,2013-02-01 06:43:00,
2013-02-01 01:48:00,34.6,23.7,29.85,SSE,153,0.0,0.0,64,0.00,,,0.00,0,WeatherTracker,2013-02-01 06:48:00,
2013-02-01 01:53:00,34.8,23.9,29.84,South,172,3.0,0.0,64,0.00,,,0.00,0,WeatherTracker,2013-02-01 06:53:00,
2013-02-01 01:58:00,35.2,24.3,29.85,ESE,117,0.0,0.0,64,0.00,,,0.00,0,WeatherTracker,2013-02-01 06:58:00,
2013-02-01 02:03:00,35.4,23.7,29.84,SE,129,2.0,0.0,62,0.00,,,0.00,0,WeatherTracker,2013-02-01 07:03:00,
2013-02-01 02:09:00,35.6,23.9,29.84,WSW,241,3.0,0.0,62,0.00,,,0.00,0,WeatherTracker,2013-02-01 07:09:00,
2013-02-01 02:14:00,36.0,23.9,29.84,South,190,4.0,0.0,61,0.00,,,0.00,0,WeatherTracker,2013-02-01 07:14:00,
2013-02-01 02:19:00,36.2,24.5,29.84,SE,143,2.0,0.0,62,0.00,,,0.00,0,WeatherTracker,2013-02-01 07:19:00,
2013-02-01 02:24:00,36.4,24.6,29.84,NE,49,0.0,0.0,62,0.00,,,0.00,0,WeatherTracker,2013-02-01 07:24:00,
2013-02-01 02:29:00,36.7,24.1,29.83,SSE,164,2.0,0.0,60,0.00,,,0.00,0,WeatherTracker,2013-02-01 07:29:00,
2013-02-01 02:34:00,36.9,24.7,29.83,SE,132,2.0,0.0,61,0.00,,,0.00,0,WeatherTracker,2013-02-01 07:34:00,
2013-02-01 02:39:00,37.0,25.2,29.83,SE,143,1.0,0.0,62,0.00,,,0.00,0,WeatherTracker,2013-02-01 07:39:00,
2013-02-01 02:44:00,37.0,24.8,29.83,NNW,330,2.0,0.0,61,0.00,,,0.00,0,WeatherTracker,2013-02-01 07:44:00,
2013-02-01 02:49:00,37.1,24.9,29.83,ESE,116,5.0,0.0,61,0.00,,,0.00,0,WeatherTracker,2013-02-01 07:49:00,
2013-02-01 02:54:00,37.3,24.7,29.83,ENE,64,2.0,0.0,60,0.00,,,0.00,0,WeatherTracker,2013-02-01 07:54:00,
2013-02-01 02:59:00,37.5,24.9,29.82,SE,133,0.0,0.0,60,0.00,,,0.00,0,WeatherTracker,2013-02-01 07:59:00,
2013-02-01 03:04:00,37.6,25.0,29.82,SE,137,1.0,0.0,60,0.00,,,0.00,0,WeatherTracker,2013-02-01 08:04:00,
2013-02-01 03:09:00,37.7,25.9,29.82,East,82,4.0,0.0,62,0.00,,,0.00,0,WeatherTracker,2013-02-01 08:09:00,
2013-02-01 03:14:00,37.8,25.6,29.82,SE,146,2.0,0.0,61,0.00,,,0.00,0,WeatherTracker,2013-02-01 08:14:00,
2013-02-01 03:19:00,37.8,25.2,29.82,SE,132,4.0,0.0,60,0.00,,,0.00,0,WeatherTracker,2013-02-01 08:19:00,
2013-02-01 03:24:00,37.8,25.6,29.81,NW,322,4.0,0.0,61,0.00,,,0.00,0,WeatherTracker,2013-02-01 08:24:00,
2013-02-01 03:29:00,37.7,25.5,29.82,ESE,112,6.0,0.0,61,0.00,,,0.00,0,WeatherTracker,2013-02-01 08:29:00,
2013-02-01 03:34:00,37.8,26.0,29.82,SSE,166,3.0,0.0,62,0.00,,,0.00,0,WeatherTracker,2013-02-01 08:34:00,
2013-02-01 03:39:00,37.8,25.6,29.81,SSE,167,0.0,0.0,61,0.00,,,0.00,0,WeatherTracker,2013-02-01 08:39:00,
2013-02-01 03:44:00,37.8,26.0,29.81,SSE,153,1.0,0.0,62,0.00,,,0.00,0,WeatherTracker,2013-02-01 08:44:00,
2013-02-01 03:49:00,37.9,26.1,29.81,SSE,165,2.0,0.0,62,0.00,,,0.00,0,WeatherTracker,2013-02-01 08:49:00,
2013-02-01 03:54:00,37.9,26.4,29.80,South,173,1.0,0.0,63,0.00,,,0.00,0,WeatherTracker,2013-02-01 08:54:00,
2013-02-01 03:59:00,37.8,26.4,29.80,SSE,153,1.0,0.0,63,0.00,,,0.00,0,WeatherTracker,2013-02-01 08:59:00,
2013-02-01 04:04:00,37.6,26.2,29.80,SSE,157,2.0,0.0,63,0.00,,,0.00,0,WeatherTracker,2013-02-01 09:04:00,
2013-02-01 04:09:00,37.6,26.9,29.80,SSW,209,2.0,0.0,65,0.00,,,0.00,0,WeatherTracker,2013-02-01 09:09:00,
2013-02-01 04:14:00,37.7,27.0,29.80,South,171,1.0,0.0,65,0.00,,,0.00,0,WeatherTracker,2013-02-01 09:14:00,
2013-02-01 04:19:00,37.8,26.7,29.80,SSE,161,3.0,0.0,64,0.00,,,0.00,0,WeatherTracker,2013-02-01 09:19:00,
2013-02-01 04:25:00,38.0,26.9,29.81,SE,141,3.0,0.0,64,0.00,,,0.00,0,WeatherTracker,2013-02-01 09:25:00,
2013-02-01 04:30:00,37.9,27.2,29.81,South,186,4.0,0.0,65,0.00,,,0.00,0,WeatherTracker,2013-02-01 09:30:00,
2013-02-01 04:35:00,37.8,27.5,29.82,SSE,151,3.0,0.0,66,0.00,,,0.00,0,WeatherTracker,2013-02-01 09:35:00,
2013-02-01 04:40:00,37.7,27.7,29.83,SSE,156,0.0,0.0,67,0.00,,,0.00,0,WeatherTracker,2013-02-01 09:40:00,
2013-02-01 04:45:00,37.6,27.7,29.83,SE,138,3.0,0.0,67,0.00,,,0.00,0,WeatherTracker,2013-02-01 09:45:00,
2013-02-01 04:50:00,37.4,28.2,29.83,ESE,106,3.0,0.0,69,0.00,,,0.00,0,WeatherTracker,2013-02-01 09:50:00,
2013-02-01 04:55:00,37.2,28.3,29.83,SSE,152,1.0,0.0,70,0.00,,,0.00,0,WeatherTracker,2013-02-01 09:55:00,
2013-02-01 05:00:00,37.0,28.5,29.83,East,101,1.0,0.0,71,0.00,,,0.00,0,WeatherTracker,2013-02-01 10:00:00,
2013-02-01 05:05:00,36.8,27.9,29.83,SSE,152,2.0,0.0,70,0.00,,,0.00,0,WeatherTracker,2013-02-01 10:05:00,
2013-02-01 05:10:00,36.7,28.2,29.84,East,80,0.0,0.0,71,0.00,,,0.00,0,WeatherTracker,2013-02-01 10:10:00,
2013-02-01 05:15:00,36.6,28.1,29.84,ESE,119,0.0,0.0,71,0.00,,,0.00,0,WeatherTracker,2013-02-01 10:15:00,
2013-02-01 05:20:00,36.5,27.7,29.84,East,90,0.0,0.0,70,0.00,,,0.00,0,WeatherTracker,2013-02-01 10:20:00,
2013-02-01 05:25:00,36.4,27.2,29.84,ESE,102,0.0,0.0,69,0.00,,,0.00,0,WeatherTracker,2013-02-01 10:25:00,
2013-02-01 05:31:00,36.2,26.3,29.84,SSE,150,1.0,0.0,67,0.00,,,0.00,0,WeatherTracker,2013-02-01 10:31:00,
2013-02-01 05:36:00,36.1,25.9,29.84,SSE,157,1.0,0.0,66,0.00,,,0.00,0,WeatherTracker,2013-02-01 10:36:00,
2013-02-01 05:41:00,35.9,24.5,29.85,ESE,103,2.0,0.0,63,0.00,,,0.00,0,WeatherTracker,2013-02-01 10:41:00,
2013-02-01 05:46:00,35.6,24.3,29.85,ESE,117,3.0,0.0,63,0.00,,,0.00,0,WeatherTracker,2013-02-01 10:46:00,
2013-02-01 05:51:00,35.3,22.4,29.85,East,90,2.0,0.0,59,0.00,,,0.00,0,WeatherTracker,2013-02-01 10:51:00,
2013-02-01 05:56:00,35.0,20.9,29.86,SSE,153,3.0,0.0,56,0.00,,,0.00,0,WeatherTracker,2013-02-01 10:56:00,
2013-02-01 06:01:00,34.7,20.6,29.86,SE,124,1.0,0.0,56,0.00,,,0.00,0,WeatherTracker,2013-02-01 11:01:00,
2013-02-01 06:06:00,34.4,19.9,29.85,ESE,119,0.0,0.0,55,0.00,,,0.00,0,WeatherTracker,2013-02-01 11:06:00,
2013-02-01 06:11:00,34.2,19.3,29.88,NE,53,3.0,0.0,54,0.00,,,0.00,0,WeatherTracker,2013-02-01 11:11:00,
2013-02-01 06:16:00,34.1,21.3,29.87,East,94,1.0,0.0,59,0.00,,,0.00,0,WeatherTracker,2013-02-01 11:16:00,
2013-02-01 06:21:00,33.8,21.4,29.88,NE,53,1.0,0.0,60,0.00,,,0.00,0,WeatherTracker,2013-02-01 11:21:00,
2013-02-01 06:26:00,33.4,22.6,29.89,NW,318,0.0,0.0,64,0.00,,,0.00,0,WeatherTracker,2013-02-01 11:26:00,
2013-02-01 06:31:00,33.0,23.3,29.89,NNE,22,9.0,0.0,67,0.00,,,0.00,0,WeatherTracker,2013-02-01 11:31:00,
2013-02-01 06:36:00,31.2,22.6,29.90,North,9,1.0,0.0,70,0.00,,,0.00,0,WeatherTracker,2013-02-01 11:36:00,
2013-02-01 06:41:00,29.7,21.8,29.91,North,11,4.0,0.0,72,0.00,,,0.00,0,WeatherTracker,2013-02-01 11:41:00,
2013-02-01 06:46:00,28.6,21.4,29.92,NNE,23,2.0,0.0,74,0.00,,,0.00,0,WeatherTracker,2013-02-01 11:46:00,
2013-02-01 06:51:00,27.7,20.2,29.92,ESE,122,3.0,0.0,73,0.00,,,0.00,0,WeatherTracker,2013-02-01 11:51:00,
2013-02-01 06:56:00,27.4,19.6,29.92,ENE,60,3.0,0.0,72,0.00,,,0.00,0,WeatherTracker,2013-02-01 11:56:00,
2013-02-01 07:01:00,27.7,12.8,29.92,WSW,252,0.0,0.0,53,0.00,,,0.00,0,WeatherTracker,2013-02-01 12:01:00,
2013-02-01 07:06:00,28.6,7.4,29.93,NNE,12,7.0,0.0,40,0.00,,,0.00,0,WeatherTracker,2013-02-01 12:06:00,
2013-02-01 07:11:00,29.1,8.9,29.93,NNE,17,0.0,0.0,42,0.00,,,0.00,0,WeatherTracker,2013-02-01 12:11:00,
2013-02-01 07:17:00,29.2,10.5,29.94,NNE,15,3.0,0.0,45,0.00,,,0.00,0,WeatherTracker,2013-02-01 12:17:00,
2013-02-01 07:22:00,29.0,12.7,29.94,West,281,0.0,0.0,50,0.00,,,0.00,0,WeatherTracker,2013-02-01 12:22:00,
2013-02-01 07:27:00,28.8,12.5,29.95,NNW,347,1.0,0.0,50,0.00,,,0.00,0,WeatherTracker,2013-02-01 12:27:00,
2013-02-01 07:32:00,28.4,11.7,29.95,NNW,329,0.0,0.0,49,0.00,,,0.00,0,WeatherTracker,2013-02-01 12:32:00,
2013-02-01 07:37:00,28.1,11.0,29.95,NNE,18,1.0,0.0,48,0.00,,,0.00,5,WeatherTracker,2013-02-01 12:37:00,
2013-02-01 07:42:00,27.8,7.7,29.96,NE,42,0.0,0.0,42,0.00,,,0.00,7,WeatherTracker,2013-02-01 12:42:00,
2013-02-01 07:47:00,27.6,7.5,29.97,NNW,327,3.0,0.0,42,0.00,,,0.00,9,WeatherTracker,2013-02-01 12:47:00,
2013-02-01 07:52:00,27.2,6.1,29.98,NE,45,0.0,0.0,40,0.00,,,0.00,9,WeatherTracker,2013-02-01 12:52:00,
2013-02-01 07:57:00,26.7,5.1,29.98,NNW,332,2.0,0.0,39,0.00,,,0.00,11,WeatherTracker,2013-02-01 12:57:00,
2013-02-01 08:02:00,26.4,5.4,29.99,NNE,13,4.0,0.0,40,0.00,,,0.00,14,WeatherTracker,2013-02-01 13:02:00,
2013-02-01 08:07:00,26.2,5.2,29.99,NNW,344,2.0,0.0,40,0.00,,,0.00,21,WeatherTracker,2013-02-01 13:07:00,
2013-02-01 08:12:00,26.1,4.0,29.99,NE,40,1.0,0.0,38,0.00,,,0.00,21,WeatherTracker,2013-02-01 13:12:00,
2013-02-01 08:17:00,26.1,4.6,30.00,WNW,297,6.0,0.0,39,0.00,,,0.00,23,WeatherTracker,2013-02-01 13:17:00,
2013-02-01 08:22:00,26.0,5.6,30.00,NNE,19,4.0,0.0,41,0.00,,,0.00,42,WeatherTracker,2013-02-01 13:22:00,
2013-02-01 08:27:00,25.8,5.9,30.00,NNW,335,2.0,0.0,42,0.00,,,0.00,26,WeatherTracker,2013-02-01 13:27:00,
2013-02-01 08:32:00,25.7,6.8,30.01,West,281,3.0,0.0,44,0.00,,,0.00,39,WeatherTracker,2013-02-01 13:32:00,
2013-02-01 08:37:00,25.5,6.7,30.01,North,350,2.0,0.0,44,0.00,,,0.00,53,WeatherTracker,2013-02-01 13:37:00,
2013-02-01 08:42:00,25.4,6.6,30.01,North,11,0.0,0.0,44,0.00,,,0.00,72,WeatherTracker,2013-02-01 13:42:00,
2013-02-01 08:47:00,25.4,7.1,30.01,North,355,6.0,0.0,45,0.00,,,0.00,70,WeatherTracker,2013-02-01 13:47:00,
2013-02-01 08:52:00,25.4,6.6,30.02,West,273,1.0,0.0,44,0.00,,,0.00,62,WeatherTracker,2013-02-01 13:52:00,
2013-02-01 08:57:00,25.4,7.1,30.02,ENE,63,2.0,0.0,45,0.00,,,0.00,33,WeatherTracker,2013-02-01 13:57:00,
2013-02-01 09:03:00,25.5,7.1,30.03,NNE,22,1.0,0.0,45,0.00,,,0.00,81,WeatherTracker,2013-02-01 14:03:00,
2013-02-01 09:08:00,25.5,7.6,30.03,West,273,2.0,0.0,46,0.00,,,0.00,137,WeatherTracker,2013-02-01 14:08:00,
2013-02-01 09:13:00,25.6,7.2,30.03,East,98,10.0,0.0,45,0.00,,,0.00,169,WeatherTracker,2013-02-01 14:13:00,
2013-02-01 09:18:00,25.3,7.0,30.04,NNW,327,2.0,0.0,45,0.00,,,0.00,230,WeatherTracker,2013-02-01 14:18:00,
2013-02-01 09:23:00,25.4,7.1,30.04,NE,44,3.0,0.0,45,0.00,,,0.00,234,WeatherTracker,2013-02-01 14:23:00,
2013-02-01 09:28:00,25.4,6.6,30.05,North,10,6.0,0.0,44,0.00,,,0.00,311,WeatherTracker,2013-02-01 14:28:00,
2013-02-01 09:33:00,25.4,6.6,30.05,NE,49,3.0,0.0,44,0.00,,,0.00,197,WeatherTracker,2013-02-01 14:33:00,
2013-02-01 09:38:00,25.2,6.4,30.05,NNE,26,1.0,0.0,44,0.00,,,0.00,153,WeatherTracker,2013-02-01 14:38:00,
2013-02-01 09:43:00,25.2,8.3,30.05,West,261,0.0,0.0,48,0.00,,,0.00,65,WeatherTracker,2013-02-01 14:43:00,
2013-02-01 09:48:00,25.2,6.4,30.06,WNW,288,2.0,0.0,44,0.00,,,0.00,132,WeatherTracker,2013-02-01 14:48:00,
2013-02-01 09:54:00,25.3,6.0,30.06,North,5,5.0,0.0,43,0.00,,,0.00,132,WeatherTracker,2013-02-01 14:54:00,
2013-02-01 09:59:00,25.3,5.5,30.07,NNW,340,4.0,0.0,42,0.00,,,0.00,141,WeatherTracker,2013-02-01 14:59:00,
2013-02-01 10:04:00,25.4,5.5,30.07,North,5,3.0,0.0,42,0.00,,,0.00,190,WeatherTracker,2013-02-01 15:04:00,
2013-02-01 10:09:00,25.5,5.6,30.07,North,360,8.0,0.0,42,0.00,,,0.00,297,WeatherTracker,2013-02-01 15:09:00,
2013-02-01 10:14:00,25.7,5.8,30.07,NNW,336,2.0,0.0,42,0.00,,,0.00,257,WeatherTracker,2013-02-01 15:14:00,
2013-02-01 10:19:00,26.1,5.7,30.08,NW,321,2.0,0.0,41,0.00,,,0.00,475,WeatherTracker,2013-02-01 15:19:00,
2013-02-01 10:24:00,26.2,5.7,30.09,West,271,6.0,0.0,41,0.00,,,0.00,130,WeatherTracker,2013-02-01 15:24:00,
2013-02-01 10:29:00,26.3,5.3,30.08,NNE,19,4.0,0.0,40,0.00,,,0.00,527,WeatherTracker,2013-02-01 15:29:00,
2013-02-01 10:34:00,26.4,5.9,30.09,NNW,340,4.0,0.0,41,0.00,,,0.00,540,WeatherTracker,2013-02-01 15:34:00,
2013-02-01 10:39:00,26.6,5.6,30.09,ENE,63,3.0,0.0,40,0.00,,,0.00,510,WeatherTracker,2013-02-01 15:39:00,
2013-02-01 10:44:00,26.7,6.2,30.09,NNE,26,3.0,0.0,41,0.00,,,0.00,522,WeatherTracker,2013-02-01 15:44:00,
2013-02-01 10:49:00,27.0,5.9,30.09,NW,320,0.0,0.0,40,0.00,,,0.00,306,WeatherTracker,2013-02-01 15:49:00,
2013-02-01 10:54:00,27.5,5.8,30.09,NNW,345,4.0,0.0,39,0.00,,,0.00,483,WeatherTracker,2013-02-01 15:54:00,
2013-02-01 10:59:00,27.6,5.4,30.09,NNE,28,2.0,0.0,38,0.00,,,0.00,573,WeatherTracker,2013-02-01 15:59:00,
2013-02-01 11:04:00,28.0,6.8,30.09,East,88,0.0,0.0,40,0.00,,,0.00,599,WeatherTracker,2013-02-01 16:04:00,
2013-02-01 11:09:00,27.8,7.7,30.09,NNE,17,4.0,0.0,42,0.00,,,0.00,476,WeatherTracker,2013-02-01 16:09:00,
2013-02-01 11:14:00,27.0,8.0,30.10,NE,49,1.0,0.0,44,0.00,,,0.00,559,WeatherTracker,2013-02-01 16:14:00,
2013-02-01 11:20:00,26.4,8.0,30.10,WNW,303,1.0,0.0,45,0.00,,,0.00,605,WeatherTracker,2013-02-01 16:20:00,
2013-02-01 11:25:00,26.7,8.7,30.10,NNE,18,4.0,0.0,46,0.00,,,0.00,578,WeatherTracker,2013-02-01 16:25:00,
2013-02-01 11:30:00,26.9,8.9,30.11,North,5,4.0,0.0,46,0.00,,,0.00,557,WeatherTracker,2013-02-01 16:30:00,
2013-02-01 11:35:00,26.7,7.8,30.10,NNE,30,5.0,0.0,44,0.00,,,0.00,547,WeatherTracker,2013-02-01 16:35:00,
2013-02-01 11:40:00,26.5,8.1,30.10,WNW,291,5.0,0.0,45,0.00,,,0.00,592,WeatherTracker,2013-02-01 16:40:00,
2013-02-01 11:45:00,26.6,8.2,30.10,NW,318,1.0,0.0,45,0.00,,,0.00,638,WeatherTracker,2013-02-01 16:45:00,
2013-02-01 11:50:00,26.7,8.2,30.11,NNW,331,6.0,0.0,45,0.00,,,0.00,659,WeatherTracker,2013-02-01 16:50:00,
2013-02-01 11:55:00,26.9,8.9,30.11,North,5,8.0,0.0,46,0.00,,,0.00,664,WeatherTracker,2013-02-01 16:55:00,
2013-02-01 12:00:00,27.2,8.7,30.11,ENE,71,1.0,0.0,45,0.00,,,0.00,671,WeatherTracker,2013-02-01 17:00:00,
2013-02-01 12:05:00,27.1,9.1,30.11,NNE,30,4.0,0.0,46,0.00,,,0.00,480,WeatherTracker,2013-02-01 17:05:00,
2013-02-01 12:10:00,27.1,10.0,30.11,North,11,9.0,0.0,48,0.00,,,0.00,239,WeatherTracker,2013-02-01 17:10:00,
2013-02-01 12:15:00,26.8,9.8,30.11,NNW,335,9.0,0.0,48,0.00,,,0.00,362,WeatherTracker,2013-02-01 17:15:00,
2013-02-01 12:20:00,26.7,10.6,30.11,ENE,60,5.0,0.0,50,0.00,,,0.00,482,WeatherTracker,2013-02-01 17:20:00,
2013-02-01 12:25:00,26.7,10.6,30.11,NW,326,10.0,0.0,50,0.00,,,0.00,612,WeatherTracker,2013-02-01 17:25:00,
2013-02-01 12:30:00,26.6,10.0,30.11,North,360,1.0,0.0,49,0.00,,,0.00,640,WeatherTracker,2013-02-01 17:30:00,
2013-02-01 12:35:00,26.6,10.0,30.10,NNW,341,1.0,0.0,49,0.00,,,0.00,427,WeatherTracker,2013-02-01 17:35:00,
2013-02-01 12:40:00,26.7,10.6,30.11,NNE,26,1.0,0.0,50,0.00,,,0.00,594,WeatherTracker,2013-02-01 17:40:00,
2013-02-01 12:45:00,26.6,10.0,30.11,North,9,12.0,0.0,49,0.00,,,0.00,427,WeatherTracker,2013-02-01 17:45:00,
2013-02-01 12:50:00,26.5,10.4,30.10,NNE,21,2.0,0.0,50,0.00,,,0.00,334,WeatherTracker,2013-02-01 17:50:00,
2013-02-01 12:56:00,26.9,10.3,30.11,ENE,57,2.0,0.0,49,0.00,,,0.00,594,WeatherTracker,2013-02-01 17:56:00,
2013-02-01 13:01:00,27.2,11.1,30.11,NE,34,2.0,0.0,50,0.00,,,0.00,420,WeatherTracker,2013-02-01 18:01:00,
2013-02-01 13:06:00,27.1,10.5,30.11,NW,317,3.0,0.0,49,0.00,,,0.00,524,WeatherTracker,2013-02-01 18:06:00,
2013-02-01 13:11:00,27.1,11.4,30.11,NE,43,2.0,0.0,51,0.00,,,0.00,246,WeatherTracker,2013-02-01 18:11:00,
2013-02-01 13:16:00,27.3,11.1,30.12,ESE,112,1.0,0.0,50,0.00,,,0.00,376,WeatherTracker,2013-02-01 18:16:00,
2013-02-01 13:21:00,27.4,10.8,30.11,North,360,1.0,0.0,49,0.00,,,0.00,462,WeatherTracker,2013-02-01 18:21:00,
2013-02-01 13:26:00,27.2,10.1,30.11,NE,36,2.0,0.0,48,0.00,,,0.00,401,WeatherTracker,2013-02-01 18:26:00,
2013-02-01 13:31:00,27.5,11.3,30.11,NNE,23,5.0,0.0,50,0.00,,,0.00,297,WeatherTracker,2013-02-01 18:31:00,
2013-02-01 13:36:00,27.8,11.6,30.11,NW,304,4.0,0.0,50,0.00,,,0.00,492,WeatherTracker,2013-02-01 18:36:00,
2013-02-01 13:41:00,28.0,10.9,30.11,North,351,1.0,0.0,48,0.00,,,0.00,466,WeatherTracker,2013-02-01 18:41:00,
2013-02-01 13:46:00,28.1,11.0,30.11,ENE,69,0.0,0.0,48,0.00,,,0.00,313,WeatherTracker,2013-02-01 18:46:00,
2013-02-01 13:51:00,28.1,10.5,30.11,NNW,339,0.0,0.0,47,0.00,,,0.00,519,WeatherTracker,2013-02-01 18:51:00,
2013-02-01 13:56:00,27.7,10.6,30.11,SE,128,3.0,0.0,48,0.00,,,0.00,299,WeatherTracker,2013-02-01 18:56:00,
2013-02-01 14:01:00,27.5,10.9,30.11,SE,146,3.0,0.0,49,0.00,,,0.00,371,WeatherTracker,2013-02-01 19:01:00,
2013-02-01 14:06:00,27.8,11.2,30.11,East,82,3.0,0.0,49,0.00,,,0.00,346,WeatherTracker,2013-02-01 19:06:00,
2013-02-01 14:11:00,27.9,10.8,30.11,NE,51,2.0,0.0,48,0.00,,,0.00,494,WeatherTracker,2013-02-01 19:11:00,
2013-02-01 14:16:00,28.1,11.0,30.12,NNE,33,3.0,0.0,48,0.00,,,0.00,578,WeatherTracker,2013-02-01 19:16:00,
2013-02-01 14:21:00,28.2,11.1,30.12,ESE,119,0.0,0.0,48,0.00,,,0.00,483,WeatherTracker,2013-02-01 19:21:00,
2013-02-01 14:26:00,28.2,11.5,30.12,SSE,149,2.0,0.0,49,0.00,,,0.00,316,WeatherTracker,2013-02-01 19:26:00,
2013-02-01 14:31:00,28.3,11.6,30.12,North,11,2.0,0.0,49,0.00,,,0.00,445,WeatherTracker,2013-02-01 19:31:00,
2013-02-01 14:37:00,28.2,12.0,30.13,East,90,0.0,0.0,50,0.00,,,0.00,197,WeatherTracker,2013-02-01 19:37:00,
2013-02-01 14:42:00,27.9,10.8,30.13,ESE,105,5.0,0.0,48,0.00,,,0.00,135,WeatherTracker,2013-02-01 19:42:00,
2013-02-01 14:47:00,27.9,11.2,30.12,NNE,19,6.0,0.0,49,0.00,,,0.00,250,WeatherTracker,2013-02-01 19:47:00,
2013-02-01 14:52:00,27.6,10.5,30.12,ENE,61,0.0,0.0,48,0.00,,,0.00,229,WeatherTracker,2013-02-01 19:52:00,
2013-02-01 14:57:00,27.6,11.0,30.12,NE,40,0.0,0.0,49,0.00,,,0.00,411,WeatherTracker,2013-02-01 19:57:00,
2013-02-01 15:02:00,27.7,10.6,30.12,ESE,105,0.0,0.0,48,0.00,,,0.00,229,WeatherTracker,2013-02-01 20:02:00,
2013-02-01 15:07:00,27.6,11.0,30.12,East,90,0.0,0.0,49,0.00,,,0.00,107,WeatherTracker,2013-02-01 20:07:00,
2013-02-01 15:12:00,27.4,10.8,30.13,NNW,345,4.0,0.0,49,0.00,,,0.00,67,WeatherTracker,2013-02-01 20:12:00,
2013-02-01 15:17:00,27.3,11.1,30.13,East,82,3.0,0.0,50,0.00,,,0.00,149,WeatherTracker,2013-02-01 20:17:00,
2013-02-01 15:22:00,27.4,10.8,30.13,NNE,13,0.0,0.0,49,0.00,,,0.00,54,WeatherTracker,2013-02-01 20:22:00,
2013-02-01 15:27:00,27.4,10.3,30.13,East,82,1.0,0.0,48,0.00,,,0.00,30,WeatherTracker,2013-02-01 20:27:00,
2013-02-01 15:32:00,27.2,10.6,30.13,ENE,72,3.0,0.0,49,0.00,,,0.00,30,WeatherTracker,2013-02-01 20:32:00,
2013-02-01 15:37:00,27.1,10.5,30.13,North,360,0.0,0.0,49,0.00,,,0.00,28,WeatherTracker,2013-02-01 20:37:00,
2013-02-01 15:42:00,27.1,10.5,30.13,SE,136,6.0,0.0,49,0.00,,,0.00,28,WeatherTracker,2013-02-01 20:42:00,
2013-02-01 15:47:00,27.0,10.4,30.14,ENE,69,3.0,0.0,49,0.00,,,0.00,26,WeatherTracker,2013-02-01 20:47:00,
2013-02-01 15:52:00,26.9,10.3,30.13,SSW,195,5.0,0.0,49,0.00,,,0.00,26,WeatherTracker,2013-02-01 20:52:00,
2013-02-01 15:57:00,26.7,10.1,30.13,WNW,302,4.0,0.0,49,0.00,,,0.00,26,WeatherTracker,2013-02-01 20:57:00,
2013-02-01 16:02:00,26.7,10.1,30.13,ESE,113,0.0,0.0,49,0.00,,,0.00,25,WeatherTracker,2013-02-01 21:02:00,
2013-02-01 16:07:00,26.6,10.0,30.12,ESE,107,1.0,0.0,49,0.00,,,0.00,25,WeatherTracker,2013-02-01 21:07:00,
2013-02-01 16:12:00,26.6,10.5,30.13,NNW,348,3.0,0.0,50,0.00,,,0.00,23,WeatherTracker,2013-02-01 21:12:00,
2013-02-01 16:17:00,26.6,10.0,30.14,NNW,348,3.0,0.0,49,0.00,,,0.00,23,WeatherTracker,2013-02-01 21:17:00,
2013-02-01 16:22:00,26.5,10.0,30.14,WNW,298,4.0,0.0,49,0.00,,,0.00,21,WeatherTracker,2013-02-01 21:22:00,
2013-02-01 16:27:00,26.3,9.8,30.14,WNW,300,1.0,0.0,49,0.00,,,0.00,21,WeatherTracker,2013-02-01 21:27:00,
2013-02-01 16:32:00,26.3,9.8,30.14,West,280,0.0,0.0,49,0.00,,,0.00,19,WeatherTracker,2013-02-01 21:32:00,
2013-02-01 16:38:00,26.3,9.8,30.14,East,100,0.0,0.0,49,0.00,,,0.00,19,WeatherTracker,2013-02-01 21:38:00,
2013-02-01 16:43:00,26.3,9.8,30.14,ENE,73,0.0,0.0,49,0.00,,,0.00,19,WeatherTracker,2013-02-01 21:43:00,
2013-02-01 16:48:00,26.4,9.9,30.14,ESE,118,0.0,0.0,49,0.00,,,0.00,18,WeatherTracker,2013-02-01 21:48:00,
2013-02-01 16:53:00,26.4,9.9,30.15,ENE,65,1.0,0.0,49,0.00,,,0.00,18,WeatherTracker,2013-02-01 21:53:00,
2013-02-01 16:58:00,26.3,9.8,30.15,NE,56,1.0,0.0,49,0.00,,,0.00,16,WeatherTracker,2013-02-01 21:58:00,
2013-02-01 17:03:00,26.2,9.7,30.15,East,93,2.0,0.0,49,0.00,,,0.00,14,WeatherTracker,2013-02-01 22:03:00,
2013-02-01 17:08:00,26.1,9.6,30.15,West,279,1.0,0.0,49,0.00,,,0.00,12,WeatherTracker,2013-02-01 22:08:00,
2013-02-01 17:13:00,25.9,8.9,30.16,West,268,1.0,0.0,48,0.00,,,0.00,12,WeatherTracker,2013-02-01 22:13:00,
2013-02-01 17:18:00,25.7,8.8,30.16,NE,46,5.0,0.0,48,0.00,,,0.00,12,WeatherTracker,2013-02-01 22:18:00,
2013-02-01 17:23:00,25.6,8.7,30.16,SSW,202,1.0,0.0,48,0.00,,,0.00,11,WeatherTracker,2013-02-01 22:23:00,
2013-02-01 17:28:00,25.4,8.5,30.16,North,360,2.0,0.0,48,0.00,,,0.00,11,WeatherTracker,2013-02-01 22:28:00,
2013-02-01 17:33:00,25.3,7.9,30.16,North,5,1.0,0.0,47,0.00,,,0.00,9,WeatherTracker,2013-02-01 22:33:00,
2013-02-01 17:38:00,25.1,7.7,30.16,NNW,348,0.0,0.0,47,0.00,,,0.00,9,WeatherTracker,2013-02-01 22:38:00,
2013-02-01 17:43:00,25.0,7.6,30.16,NW,322,0.0,0.0,47,0.00,,,0.00,7,WeatherTracker,2013-02-01 22:43:00,
2013-02-01 17:48:00,24.9,8.0,30.16,NW,315,2.0,0.0,48,0.00,,,0.00,5,WeatherTracker,2013-02-01 22:48:00,
2013-02-01 17:53:00,24.8,8.4,30.16,NNW,338,0.0,0.0,49,0.00,,,0.00,5,WeatherTracker,2013-02-01 22:53:00,
2013-02-01 17:58:00,24.7,8.3,30.16,East,87,0.0,0.0,49,0.00,,,0.00,0,WeatherTracker,2013-02-01 22:58:00,
2013-02-01 18:03:00,24.6,8.2,30.16,NNW,335,2.0,0.0,49,0.00,,,0.00,5,WeatherTracker,2013-02-01 23:03:00,
2013-02-01 18:08:00,24.5,8.1,30.16,NNE,21,0.0,0.0,49,0.00,,,0.00,0,WeatherTracker,2013-02-01 23:08:00,
2013-02-01 18:13:00,24.4,8.9,30.16,NNE,19,0.0,0.0,51,0.00,,,0.00,0,WeatherTracker,2013-02-01 23:13:00,
2013-02-01 18:18:00,24.3,8.4,30.16,NE,38,0.0,0.0,50,0.00,,,0.00,0,WeatherTracker,2013-02-01 23:18:00,
2013-02-01 18:23:00,24.2,7.8,30.16,NE,45,0.0,0.0,49,0.00,,,0.00,0,WeatherTracker,2013-02-01 23:23:00,
2013-02-01 18:28:00,24.1,8.2,30.17,NE,44,1.0,0.0,50,0.00,,,0.00,0,WeatherTracker,2013-02-01 23:28:00,
2013-02-01 18:33:00,23.9,8.0,30.17,North,360,1.0,0.0,50,0.00,,,0.00,0,WeatherTracker,2013-02-01 23:33:00,
2013-02-01 18:38:00,23.9,8.0,30.18,NNE,13,0.0,0.0,50,0.00,,,0.00,0,WeatherTracker,2013-02-01 23:38:00,
2013-02-01 18:43:00,23.7,8.2,30.18,NNE,24,0.0,0.0,51,0.00,,,0.00,0,WeatherTracker,2013-02-01 23:43:00,
2013-02-01 18:48:00,23.6,8.2,30.18,NNW,347,0.0,0.0,51,0.00,,,0.00,0,WeatherTracker,2013-02-01 23:48:00,
2013-02-01 18:53:00,23.5,8.5,30.18,North,351,0.0,0.0,52,0.00,,,0.00,0,WeatherTracker,2013-02-01 23:53:00,
2013-02-01 18:58:00,23.3,8.3,30.18,NNW,342,3.0,0.0,52,0.00,,,0.00,0,WeatherTracker,2013-02-01 23:58:00,
2013-02-01 19:03:00,23.3,8.7,30.18,NNW,342,0.0,0.0,53,0.00,,,0.00,0,WeatherTracker,2013-02-02 00:03:00,
2013-02-01 19:08:00,23.2,8.2,30.19,North,355,0.0,0.0,52,0.00,,,0.00,0,WeatherTracker,2013-02-02 00:08:00,
2013-02-01 19:13:00,23.1,8.5,30.19,ENE,67,0.0,0.0,53,0.00,,,0.00,0,WeatherTracker,2013-02-02 00:13:00,
2013-02-01 19:18:00,23.0,8.4,30.19,ENE,67,0.0,0.0,53,0.00,,,0.00,0,WeatherTracker,2013-02-02 00:18:00,
2013-02-01 19:24:00,22.9,8.8,30.19,ENE,67,0.0,0.0,54,0.00,,,0.00,0,WeatherTracker,2013-02-02 00:24:00,
2013-02-01 19:29:00,22.8,8.7,30.19,ENE,67,0.0,0.0,54,0.00,,,0.00,0,WeatherTracker,2013-02-02 00:29:00,
2013-02-01 19:34:00,22.8,9.1,30.19,ENE,67,0.0,0.0,55,0.00,,,0.00,0,WeatherTracker,2013-02-02 00:34:00,
2013-02-01 19:39:00,22.7,9.4,30.19,ENE,60,0.0,0.0,56,0.00,,,0.00,0,WeatherTracker,2013-02-02 00:39:00,
2013-02-01 19:44:00,22.6,8.5,30.20,ENE,70,0.0,0.0,54,0.00,,,0.00,0,WeatherTracker,2013-02-02 00:44:00,
2013-02-01 19:49:00,22.5,8.8,30.20,ENE,70,0.0,0.0,55,0.00,,,0.00,0,WeatherTracker,2013-02-02 00:49:00,
2013-02-01 19:54:00,22.4,9.1,30.20,ENE,70,0.0,0.0,56,0.00,,,0.00,0,WeatherTracker,2013-02-02 00:54:00,
2013-02-01 19:59:00,22.3,9.4,30.20,ENE,70,0.0,0.0,57,0.00,,,0.00,0,WeatherTracker,2013-02-02 00:59:00,
2013-02-01 20:04:00,22.2,9.3,30.20,ENE,70,0.0,0.0,57,0.00,,,0.00,0,WeatherTracker,2013-02-02 01:04:00,
2013-02-01 20:09:00,22.1,9.2,30.20,ENE,69,0.0,0.0,57,0.00,,,0.00,0,WeatherTracker,2013-02-02 01:09:00,
2013-02-01 20:14:00,22.0,8.7,30.20,ENE,70,0.0,0.0,56,0.00,,,0.00,0,WeatherTracker,2013-02-02 01:14:00,
2013-02-01 20:19:00,21.9,9.0,30.20,ENE,69,0.0,0.0,57,0.00,,,0.00,0,WeatherTracker,2013-02-02 01:19:00,
2013-02-01 20:24:00,21.7,8.8,30.21,ENE,69,0.0,0.0,57,0.00,,,0.00,0,WeatherTracker,2013-02-02 01:24:00,
2013-02-01 20:29:00,21.6,9.1,30.21,ENE,70,0.0,0.0,58,0.00,,,0.00,0,WeatherTracker,2013-02-02 01:29:00,
2013-02-01 20:34:00,21.5,9.4,30.21,ENE,70,0.0,0.0,59,0.00,,,0.00,0,WeatherTracker,2013-02-02 01:34:00,
2013-02-01 20:39:00,21.5,8.7,30.21,East,79,0.0,0.0,57,0.00,,,0.00,0,WeatherTracker,2013-02-02 01:39:00,
2013-02-01 20:44:00,21.4,9.3,30.21,East,79,0.0,0.0,59,0.00,,,0.00,0,WeatherTracker,2013-02-02 01:44:00,
2013-02-01 20:49:00,21.3,9.2,30.21,East,79,0.0,0.0,59,0.00,,,0.00,0,WeatherTracker,2013-02-02 01:49:00,
2013-02-01 20:55:00,21.3,8.9,30.21,East,79,0.0,0.0,58,0.00,,,0.00,0,WeatherTracker,2013-02-02 01:55:00,
2013-02-01 21:00:00,21.3,8.9,30.21,East,82,0.0,0.0,58,0.00,,,0.00,0,WeatherTracker,2013-02-02 02:00:00,
2013-02-01 21:05:00,21.2,8.8,30.21,WNW,294,0.0,0.0,58,0.00,,,0.00,0,WeatherTracker,2013-02-02 02:05:00,
2013-02-01 21:10:00,21.1,9.4,30.21,WNW,294,0.0,0.0,60,0.00,,,0.00,0,WeatherTracker,2013-02-02 02:10:00,
2013-02-01 21:15:00,21.0,9.7,30.22,WNW,294,0.0,0.0,61,0.00,,,0.00,0,WeatherTracker,2013-02-02 02:15:00,
2013-02-01 21:20:00,20.9,9.6,30.22,WNW,294,0.0,0.0,61,0.00,,,0.00,0,WeatherTracker,2013-02-02 02:20:00,
2013-02-01 21:25:00,20.8,9.5,30.22,WNW,294,0.0,0.0,61,0.00,,,0.00,0,WeatherTracker,2013-02-02 02:25:00,
2013-02-01 21:30:00,20.8,9.5,30.22,WNW,294,0.0,0.0,61,0.00,,,0.00,0,WeatherTracker,2013-02-02 02:30:00,
2013-02-01 21:35:00,20.5,9.2,30.22,WNW,294,0.0,0.0,61,0.00,,,0.00,0,WeatherTracker,2013-02-02 02:35:00,
2013-02-01 21:40:00,20.4,9.1,30.21,WNW,294,0.0,0.0,61,0.00,,,0.00,0,WeatherTracker,2013-02-02 02:40:00,
2013-02-01 21:45:00,20.3,9.7,30.21,WNW,294,0.0,0.0,63,0.00,,,0.00,0,WeatherTracker,2013-02-02 02:45:00,
2013-02-01 21:50:00,20.2,9.6,30.21,WNW,294,0.0,0.0,63,0.00,,,0.00,0,WeatherTracker,2013-02-02 02:50:00,
2013-02-01 21:55:00,20.0,9.5,30.21,WNW,294,0.0,0.0,63,0.00,,,0.00,0,WeatherTracker,2013-02-02 02:55:00,
2013-02-01 22:00:00,19.9,9.4,30.21,WNW,294,0.0,0.0,63,0.00,,,0.00,0,WeatherTracker,2013-02-02 03:00:00,
2013-02-01 22:05:00,19.8,10.0,30.22,WNW,294,1.0,0.0,65,0.00,,,0.00,0,WeatherTracker,2013-02-02 03:05:00,
2013-02-01 22:10:00,19.7,10.2,30.22,WNW,294,0.0,0.0,66,0.00,,,0.00,0,WeatherTracker,2013-02-02 03:10:00,
2013-02-01 22:15:00,19.7,9.9,30.23,WNW,294,0.0,0.0,65,0.00,,,0.00,0,WeatherTracker,2013-02-02 03:15:00,
2013-02-01 22:20:00,19.7,9.9,30.23,WNW,294,0.0,0.0,65,0.00,,,0.00,0,WeatherTracker,2013-02-02 03:20:00,
2013-02-01 22:25:00,19.7,9.9,30.23,WNW,294,0.0,0.0,65,0.00,,,0.00,0,WeatherTracker,2013-02-02 03:25:00,
2013-02-01 22:30:00,19.7,10.2,30.23,WNW,294,0.0,0.0,66,0.00,,,0.00,0,WeatherTracker,2013-02-02 03:30:00,
2013-02-01 22:35:00,19.7,9.9,30.23,WNW,294,0.0,0.0,65,0.00,,,0.00,0,WeatherTracker,2013-02-02 03:35:00,
2013-02-01 22:40:00,19.7,10.2,30.23,WNW,294,0.0,0.0,66,0.00,,,0.00,0,WeatherTracker,2013-02-02 03:40:00,
2013-02-01 22:45:00,19.5,10.4,30.23,WNW,294,0.0,0.0,67,0.00,,,0.00,0,WeatherTracker,2013-02-02 03:45:00,
2013-02-01 22:51:00,19.5,10.0,30.23,WNW,294,0.0,0.0,66,0.00,,,0.00,0,WeatherTracker,2013-02-02 03:51:00,
2013-02-01 22:56:00,19.5,10.0,30.23,WNW,294,0.0,0.0,66,0.00,,,0.00,0,WeatherTracker,2013-02-02 03:56:00,
2013-02-01 23:01:00,19.3,10.2,30.23,WNW,294,0.0,0.0,67,0.00,,,0.00,0,WeatherTracker,2013-02-02 04:01:00,
2013-02-01 23:06:00,19.3,10.5,30.23,WNW,294,0.0,0.0,68,0.00,,,0.00,0,WeatherTracker,2013-02-02 04:06:00,
2013-02-01 23:11:00,19.4,10.6,30.23,WNW,294,0.0,0.0,68,0.00,,,0.00,0,WeatherTracker,2013-02-02 04:11:00,
2013-02-01 23:16:00,19.3,10.2,30.23,WNW,294,0.0,0.0,67,0.00,,,0.00,0,WeatherTracker,2013-02-02 04:16:00,
2013-02-01 23:21:00,19.3,9.8,30.23,WNW,294,0.0,0.0,66,0.00,,,0.00,0,WeatherTracker,2013-02-02 04:21:00,
2013-02-01 23:26:00,19.2,10.1,30.23,WNW,294,0.0,0.0,67,0.00,,,0.00,0,WeatherTracker,2013-02-02 04:26:00,
2013-02-01 23:31:00,19.2,10.1,30.23,WNW,294,0.0,0.0,67,0.00,,,0.00,0,WeatherTracker,2013-02-02 04:31:00,
2013-02-01 23:36:00,19.3,10.5,30.23,WNW,294,0.0,0.0,68,0.00,,,0.00,0,WeatherTracker,2013-02-02 04:36:00,
2013-02-01 23:41:00,19.2,10.4,30.23,WNW,294,0.0,0.0,68,0.00,,,0.00,0,WeatherTracker,2013-02-02 04:41:00,
2013-02-01 23:46:00,19.2,10.4,30.23,WNW,294,0.0,0.0,68,0.00,,,0.00,0,WeatherTracker,2013-02-02 04:46:00,
2013-02-01 23:51:00,19.2,10.4,30.23,WNW,294,0.0,0.0,68,0.00,,,0.00,0,WeatherTracker,2013-02-02 04:51:00,